GW2490 Weather Reports


time (UTC)temp
C
wind
direction
speed
KPH
gust
KPH
rain 1hr
cm
rain 24hr
cm
rain mn
cm
humidity
%
barometer
mb
20260504214957 23 242 6.4 11.3 0.00 0.00 0.00 52 1010.5
20260504214914 -17 0.0 0.0 0.00 0.00 0.00
20260504214457 23 218 6.4 12.9 0.00 0.00 0.00 52 1010.5
20260504213958 23 168 4.8 6.4 0.00 0.00 0.00 53 1010.5
20260504213458 23 209 4.8 9.7 0.00 0.00 0.00 53 1010.5
20260504213413 -17 0.0 0.0 0.00 0.00 0.00
20260504213004 23 262 6.4 9.7 0.00 0.00 0.00 52 1010.6
20260504212909 -17 0.0 0.0 0.00 0.00 0.00
20260504212457 23 220 4.8 6.4 0.00 0.00 0.00 53 1010.6
20260504212408 -17 0.0 0.0 0.00 0.00 0.00
20260504211957 23 264 6.4 9.7 0.00 0.00 0.00 53 1010.6
20260504211457 23 234 6.4 9.7 0.00 0.00 0.00 52 1010.6
20260504211406 -17 0.0 0.0 0.00 0.00 0.00
20260504210957 23 213 6.4 12.9 0.00 0.00 0.00 53 1010.7
20260504210907 -17 0.0 0.0 0.00 0.00 0.00
20260504210458 23 256 4.8 11.3 0.00 0.00 0.00 52 1010.7
20260504210404 -17 0.0 0.0 0.00 0.00 0.00
20260504210000 23 247 6.4 9.7 0.00 0.00 0.00 53 1010.7
20260504205903 -17 0.0 0.0 0.00 0.00 0.00
20260504205457 22 213 4.8 9.7 0.00 0.00 0.00 54 1010.6
20260504205404 -17 0.0 0.0 0.00 0.00 0.00
20260504204958 23 244 3.2 11.3 0.00 0.00 0.00 53 1010.6
20260504204903 -17 0.0 0.0 0.00 0.00 0.00
20260504204458 23 225 8.0 11.3 0.00 0.00 0.00 53 1010.7
20260504204401 -17 0.0 0.0 0.00 0.00 0.00
20260504203957 23 248 4.8 9.7 0.00 0.00 0.00 53 1010.8
20260504203901 -17 0.0 0.0 0.00 0.00 0.00
20260504203459 23 236 6.4 9.7 0.00 0.00 0.00 53 1010.9
20260504203401 -17 0.0 0.0 0.00 0.00 0.00
20260504202957 22 220 6.4 9.7 0.00 0.00 0.00 54 1010.8
20260504202901 -17 0.0 0.0 0.00 0.00 0.00
20260504202401 -17 0.0 0.0 0.00 0.00 0.00
20260504202008 23 254 6.4 11.3 0.00 0.00 0.00 50 1010.8
20260504201901 -17 0.0 0.0 0.00 0.00 0.00
20260504201458 23 231 3.2 4.8 0.00 0.00 0.00 50 1010.9
20260504201359 -17 0.0 0.0 0.00 0.00 0.00
20260504201000 23 276 6.4 9.7 0.00 0.00 0.00 50 1010.9
20260504200858 -17 0.0 0.0 0.00 0.00 0.00
20260504200459 22 256 3.2 4.8 0.00 0.00 0.00 52 1011.0
20260504200358 -17 0.0 0.0 0.00 0.00 0.00
20260504195957 22 292 6.4 9.7 0.00 0.00 0.00 53 1011.0
20260504195855 -17 0.0 0.0 0.00 0.00 0.00
20260504195458 22 257 8.0 11.3 0.00 0.00 0.00 54 1010.9
20260504195356 -17 0.0 0.0 0.00 0.00 0.00
20260504194957 22 264 6.4 11.3 0.00 0.00 0.00 55 1010.9
20260504194855 -17 0.0 0.0 0.00 0.00 0.00
20260504194457 22 225 9.7 12.9 0.00 0.00 0.00 54 1010.9
20260504194356 -17 0.0 0.0 0.00 0.00 0.00
20260504193957 21 250 4.8 8.0 0.00 0.00 0.00 55 1010.9
20260504193855 -17 0.0 0.0 0.00 0.00 0.00
20260504193457 21 265 4.8 8.0 0.00 0.00 0.00 54 1010.8
20260504193356 -17 0.0 0.0 0.00 0.00 0.00
20260504192957 21 201 4.8 8.0 0.00 0.00 0.00 56 1010.8
20260504192855 -17 0.0 0.0 0.00 0.00 0.00
20260504192458 21 212 4.8 11.3 0.00 0.00 0.00 55 1010.8
20260504192356 -17 0.0 0.0 0.00 0.00 0.00
20260504191957 21 273 6.4 8.0 0.00 0.00 0.00 55 1010.9
20260504191457 21 199 4.8 9.7 0.00 0.00 0.00 55 1010.8
20260504191354 -17 0.0 0.0 0.00 0.00 0.00
20260504190957 21 221 6.4 8.0 0.00 0.00 0.00 55 1010.9
20260504190854 -17 0.0 0.0 0.00 0.00 0.00
20260504190458 22 247 6.4 12.9 0.00 0.00 0.00 54 1010.9
20260504190351 -17 0.0 0.0 0.00 0.00 0.00
20260504185958 21 236 3.2 8.0 0.00 0.00 0.00 54 1010.9
20260504185850 -17 0.0 0.0 0.00 0.00 0.00
20260504185457 21 266 4.8 9.7 0.00 0.00 0.00 52 1010.9
20260504185351 -17 0.0 0.0 0.00 0.00 0.00
20260504184957 21 235 6.4 9.7 0.00 0.00 0.00 53 1011.0
20260504184457 21 215 3.2 6.4 0.00 0.00 0.00 54 1011.0
20260504184350 -17 0.0 0.0 0.00 0.00 0.00
20260504184000 21 241 4.8 9.7 0.00 0.00 0.00 53 1011.0
20260504183851 -17 0.0 0.0 0.00 0.00 0.00
20260504183459 21 206 4.8 6.4 0.00 0.00 0.00 53 1010.9
20260504183351 -17 0.0 0.0 0.00 0.00 0.00
20260504182957 21 258 4.8 9.7 0.00 0.00 0.00 53 1010.9
20260504182851 -17 0.0 0.0 0.00 0.00 0.00
20260504182457 21 268 3.2 6.4 0.00 0.00 0.00 54 1011.0
20260504181957 21 243 4.8 8.0 0.00 0.00 0.00 54 1010.9
20260504181851 -17 0.0 0.0 0.00 0.00 0.00
20260504181458 21 216 6.4 9.7 0.00 0.00 0.00 55 1010.9
20260504181351 -17 0.0 0.0 0.00 0.00 0.00
20260504180957 21 175 4.8 8.0 0.00 0.00 0.00 55 1010.9
20260504180848 -17 0.0 0.0 0.00 0.00 0.00
20260504180458 21 221 3.2 6.4 0.00 0.00 0.00 54 1010.9
20260504180349 -17 0.0 0.0 0.00 0.00 0.00
20260504175958 21 170 3.2 4.8 0.00 0.00 0.00 54 1011.0
20260504175848 -17 0.0 0.0 0.00 0.00 0.00
20260504175459 21 262 4.8 6.4 0.00 0.00 0.00 55 1010.9
20260504175349 -17 0.0 0.0 0.00 0.00 0.00
20260504175005 21 195 1.6 4.8 0.00 0.00 0.00 58 1011.0
20260504174848 -17 0.0 0.0 0.00 0.00 0.00
20260504174457 20 206 3.2 4.8 0.00 0.00 0.00 60 1010.9
20260504174349 -17 0.0 0.0 0.00 0.00 0.00
20260504173957 20 194 3.2 6.4 0.00 0.00 0.00 59 1011.0
20260504173849 -17 0.0 0.0 0.00 0.00 0.00
20260504173457 20 187 3.2 4.8 0.00 0.00 0.00 59 1010.9
20260504173348 -17 0.0 0.0 0.00 0.00 0.00
20260504172957 20 284 1.6 3.2 0.00 0.00 0.00 57 1011.0
20260504172457 20 234 4.8 6.4 0.00 0.00 0.00 57 1011.0
20260504171957 20 238 3.2 3.2 0.00 0.00 0.00 58 1010.9
20260504171849 -17 0.0 0.0 0.00 0.00 0.00
20260504171458 20 199 3.2 6.4 0.00 0.00 0.00 60 1011.0
20260504171349 -17 0.0 0.0 0.00 0.00 0.00
20260504170957 20 251 3.2 8.0 0.00 0.00 0.00 61 1010.9
20260504170850 -17 0.0 0.0 0.00 0.00 0.00
20260504170457 20 162 3.2 4.8 0.00 0.00 0.00 57 1010.9
20260504160341 -17 0.0 0.0 0.00 0.00 0.00
20260504151009 18 18 1.6 3.2 0.00 0.00 0.00 56 1010.8
20260504150457 18 359 1.6 3.2 0.00 0.00 0.00 56 1010.8
20260504150341 -17 0.0 0.0 0.00 0.00 0.00
20260504141310 -17 0.0 0.0 0.00 0.00 0.00
20260504140958 16 31 3.2 4.8 0.00 0.00 0.00 60 1010.2
20260504140810 -17 0.0 0.0 0.00 0.00 0.00
20260504140458 16 33 3.2 3.2 0.00 0.00 0.00 60 1010.2
20260504140310 -17 0.0 0.0 0.00 0.00 0.00
20260504130803 -17 0.0 0.0 0.00 0.00 0.00
20260504130457 16 9 1.6 3.2 0.00 0.00 0.00 58 1009.7
20260504130303 -17 0.0 0.0 0.00 0.00 0.00
20260504110457 16 0 3.2 4.8 0.00 0.00 0.00 61 1009.9
20260504100457 17 315 3.2 6.4 0.00 0.00 0.00 53 1009.8
20260504100246 -17 0.0 0.0 0.00 0.00 0.00
20260504081957 21 309 8.0 11.3 0.00 0.00 0.00 44 1009.9
20260504081744 -17 0.0 0.0 0.00 0.00 0.00
20260504081458 21 323 4.8 9.7 0.00 0.00 0.00 44 1009.8
20260504081244 -17 0.0 0.0 0.00 0.00 0.00
20260504080958 21 324 6.4 11.3 0.00 0.00 0.00 44 1009.9
20260504080744 -17 0.0 0.0 0.00 0.00 0.00
20260504080457 21 312 6.4 12.9 0.00 0.00 0.00 43 1009.9
20260504080244 -17 0.0 0.0 0.00 0.00 0.00
20260504070242 -17 0.0 0.0 0.00 0.00 0.00
20260504060237 -17 0.0 0.0 0.00 0.00 0.00
20260504050732 -17 0.0 0.0 0.00 0.00 0.00
20260504050457 21 319 4.8 6.4 0.00 0.00 0.00 40 1010.2
20260504050232 -17 0.0 0.0 0.00 0.00 0.00
20260504045732 -17 0.0 0.0 0.00 0.00 0.00
20260504045507 21 352 6.4 11.3 0.00 0.00 0.00 40 1010.3
20260504044957 21 356 3.2 8.0 0.00 0.00 0.00 41 1010.3
20260504044729 -17 0.0 0.0 0.00 0.00 0.00
20260504044457 21 333 6.4 9.7 0.00 0.00 0.00 40 1010.3
20260504043957 21 319 4.8 11.3 0.00 0.00 0.00 40 1010.2
20260504043729 -17 0.0 0.0 0.00 0.00 0.00
20260504043457 21 332 6.4 8.0 0.00 0.00 0.00 40 1010.2
20260504043229 -17 0.0 0.0 0.00 0.00 0.00
20260504042957 21 348 8.0 12.9 0.00 0.00 0.00 40 1010.2
20260504042730 -17 0.0 0.0 0.00 0.00 0.00
20260504042457 21 338 8.0 16.1 0.00 0.00 0.00 40 1010.2
20260504041957 21 326 6.4 11.3 0.00 0.00 0.00 40 1010.2
20260504041729 -17 0.0 0.0 0.00 0.00 0.00
20260504041457 21 349 8.0 17.7 0.00 0.00 0.00 40 1010.2
20260504041230 -17 0.0 0.0 0.00 0.00 0.00
20260504040957 21 336 8.0 12.9 0.00 0.00 0.00 40 1010.2
20260504040730 -17 0.0 0.0 0.00 0.00 0.00
20260504040457 21 336 4.8 9.7 0.00 0.00 0.00 40 1010.2
20260504040231 -17 0.0 0.0 0.00 0.00 0.00
20260504035957 21 338 6.4 11.3 0.00 0.00 0.00 40 1010.2
20260504035727 -17 0.0 0.0 0.00 0.00 0.00
20260504035457 21 348 8.0 12.9 0.00 0.00 0.00 41 1010.2
20260504035227 -17 0.0 0.0 0.00 0.00 0.00
20260504034957 21 327 6.4 12.9 0.00 0.00 0.00 41 1010.3
20260504034728 -17 0.0 0.0 0.00 0.00 0.00
20260504034458 21 336 9.7 14.5 0.00 0.00 0.00 40 1010.3
20260504034227 -17 0.0 0.0 0.00 0.00 0.00
20260504033957 21 351 6.4 11.3 0.00 0.00 0.00 40 1010.2
20260504033728 -17 0.0 0.0 0.00 0.00 0.00
20260504033457 21 330 6.4 11.3 0.00 0.00 0.00 40 1010.3
20260504033227 -17 0.0 0.0 0.00 0.00 0.00
20260504032957 22 1 8.0 12.9 0.00 0.00 0.00 40 1010.2
20260504032727 -17 0.0 0.0 0.00 0.00 0.00
20260504032457 22 0 6.4 14.5 0.00 0.00 0.00 40 1010.1
20260504031958 22 341 6.4 12.9 0.00 0.00 0.00 40 1010.2
20260504031457 22 338 6.4 11.3 0.00 0.00 0.00 39 1010.2
20260504031228 -17 0.0 0.0 0.00 0.00 0.00
20260504031000 22 334 6.4 11.3 0.00 0.00 0.00 39 1010.3
20260504030728 -17 0.0 0.0 0.00 0.00 0.00
20260504030457 22 356 6.4 12.9 0.00 0.00 0.00 39 1010.3
20260504030228 -17 0.0 0.0 0.00 0.00 0.00
20260504025958 23 329 4.8 9.7 0.00 0.00 0.00 39 1010.2
20260504025728 -17 0.0 0.0 0.00 0.00 0.00
20260504025457 23 330 9.7 14.5 0.00 0.00 0.00 39 1010.3
20260504025227 -17 0.0 0.0 0.00 0.00 0.00
20260504025007 23 337 8.0 12.9 0.00 0.00 0.00 39 1010.3
20260504024725 -17 0.0 0.0 0.00 0.00 0.00
20260504024457 23 347 8.0 14.5 0.00 0.00 0.00 38 1010.3
20260504024226 -17 0.0 0.0 0.00 0.00 0.00
20260504023957 23 311 3.2 6.4 0.00 0.00 0.00 40 1010.3
20260504023726 -17 0.0 0.0 0.00 0.00 0.00
20260504023457 23 317 4.8 9.7 0.00 0.00 0.00 39 1010.3
20260504023226 -17 0.0 0.0 0.00 0.00 0.00
20260504022957 23 325 6.4 9.7 0.00 0.00 0.00 39 1010.4
20260504022457 23 312 6.4 12.9 0.00 0.00 0.00 39 1010.4
20260504022226 -17 0.0 0.0 0.00 0.00 0.00
20260504021958 23 314 4.8 9.7 0.00 0.00 0.00 39 1010.5
20260504021726 -17 0.0 0.0 0.00 0.00 0.00
20260504021457 23 326 6.4 12.9 0.00 0.00 0.00 39 1010.6
20260504021226 -17 0.0 0.0 0.00 0.00 0.00
20260504020957 23 320 6.4 11.3 0.00 0.00 0.00 40 1010.6
20260504020727 -17 0.0 0.0 0.00 0.00 0.00
20260504020457 23 337 9.7 16.1 0.00 0.00 0.00 39 1010.6
20260504020226 -17 0.0 0.0 0.00 0.00 0.00
20260504020002 23 313 9.7 12.9 0.00 0.00 0.00 41 1010.7
20260504015727 -17 0.0 0.0 0.00 0.00 0.00
20260504015458 23 320 9.7 11.3 0.00 0.00 0.00 41 1010.7
20260504015224 -17 0.0 0.0 0.00 0.00 0.00
20260504014957 23 300 9.7 14.5 0.00 0.00 0.00 43 1010.7
20260504014724 -17 0.0 0.0 0.00 0.00 0.00
20260504014457 23 311 9.7 14.5 0.00 0.00 0.00 42 1010.7
20260504014223 -17 0.0 0.0 0.00 0.00 0.00
20260504013958 23 309 11.3 17.7 0.00 0.00 0.00 43 1010.7
20260504013724 -17 0.0 0.0 0.00 0.00 0.00
20260504013458 23 306 6.4 12.9 0.00 0.00 0.00 43 1010.7
20260504013224 -17 0.0 0.0 0.00 0.00 0.00
20260504012957 22 308 9.7 12.9 0.00 0.00 0.00 44 1010.7
20260504012724 -17 0.0 0.0 0.00 0.00 0.00
20260504012457 22 301 11.3 17.7 0.00 0.00 0.00 46 1010.8
20260504012224 -17 0.0 0.0 0.00 0.00 0.00
20260504011957 23 308 9.7 14.5 0.00 0.00 0.00 45 1010.9
20260504011457 23 305 8.0 14.5 0.00 0.00 0.00 45 1010.9
20260504010958 23 318 11.3 14.5 0.00 0.00 0.00 43 1011.0
20260504010724 -17 0.0 0.0 0.00 0.00 0.00
20260504010457 22 310 9.7 14.5 0.00 0.00 0.00 43 1011.0
20260504010221 -17 0.0 0.0 0.00 0.00 0.00
20260504005957 22 320 9.7 12.9 0.00 0.00 0.00 45 1011.0
20260504005722 -17 0.0 0.0 0.00 0.00 0.00
20260504005457 22 321 8.0 12.9 0.00 0.00 0.00 46 1011.1
20260504005222 -17 0.0 0.0 0.00 0.00 0.00
20260504004957 22 312 9.7 16.1 0.00 0.00 0.00 45 1011.1
20260504004722 -17 0.0 0.0 0.00 0.00 0.00
20260504004457 23 307 8.0 12.9 0.00 0.00 0.00 44 1011.1
20260504004222 -17 0.0 0.0 0.00 0.00 0.00
20260504003958 22 315 6.4 12.9 0.00 0.00 0.00 44 1011.2
20260504003721 -17 0.0 0.0 0.00 0.00 0.00
20260504003458 23 314 9.7 14.5 0.00 0.00 0.00 45 1011.2
20260504003222 -17 0.0 0.0 0.00 0.00 0.00
20260504002957 22 313 8.0 11.3 0.00 0.00 0.00 46 1011.3
20260504002721 -17 0.0 0.0 0.00 0.00 0.00
20260504002457 23 311 8.0 12.9 0.00 0.00 0.00 44 1011.2
20260504002222 -17 0.0 0.0 0.00 0.00 0.00
20260504001957 23 298 6.4 14.5 0.00 0.00 0.00 44 1011.3
20260504001722 -17 0.0 0.0 0.00 0.00 0.00
20260504001457 22 315 8.0 16.1 0.00 0.00 0.00 45 1011.4
20260504001221 -17 0.0 0.0 0.00 0.00 0.00
20260504000957 22 315 6.4 12.9 0.00 0.00 0.00 45 1011.4
20260504000722 -17 0.0 0.0 0.00 0.00 0.00
20260504000457 22 309 8.0 12.9 0.00 0.00 0.00 48 1011.5
20260504000223 -17 0.0 0.0 0.00 0.00 0.00
20260503235957 22 309 6.4 9.7 0.00 0.00 0.00 47 1011.5
20260503235457 22 309 9.7 12.9 0.00 0.00 0.00 50 1011.6
20260503235220 -17 0.0 0.0 0.00 0.00 0.00
20260503234957 23 316 9.7 12.9 0.00 0.00 0.00 46 1011.6
20260503234720 -17 0.0 0.0 0.00 0.00 0.00
20260503234457 24 303 9.7 14.5 0.00 0.00 0.00 42 1011.6
20260503234219 -17 0.0 0.0 0.00 0.00 0.00
20260503233957 24 306 8.0 14.5 0.00 0.00 0.00 42 1011.6
20260503233721 -17 0.0 0.0 0.00 0.00 0.00
20260503233457 24 309 6.4 9.7 0.00 0.00 0.00 41 1011.7
20260503233217 -17 0.0 0.0 0.00 0.00 0.00
20260503232958 23 310 4.8 9.7 0.00 0.00 0.00 42 1011.7
20260503232717 -17 0.0 0.0 0.00 0.00 0.00
20260503232457 23 311 8.0 14.5 0.00 0.00 0.00 43 1011.8
20260503232219 -17 0.0 0.0 0.00 0.00 0.00
20260503231958 22 307 4.8 8.0 0.00 0.00 0.00 44 1011.9
20260503231717 -17 0.0 0.0 0.00 0.00 0.00
20260503231457 22 303 6.4 14.5 0.00 0.00 0.00 45 1011.9
20260503231217 -17 0.0 0.0 0.00 0.00 0.00
20260503230957 22 294 8.0 11.3 0.00 0.00 0.00 45 1012.0
20260503230717 -17 0.0 0.0 0.00 0.00 0.00
20260503230457 22 303 9.7 12.9 0.00 0.00 0.00 45 1012.0
20260503230217 -17 0.0 0.0 0.00 0.00 0.00
20260503225958 22 305 9.7 14.5 0.00 0.00 0.00 47 1012.1
20260503225715 -17 0.0 0.0 0.00 0.00 0.00
20260503225457 21 303 9.7 17.7 0.00 0.00 0.00 47 1012.1
20260503225214 -17 0.0 0.0 0.00 0.00 0.00
20260503224957 21 312 9.7 16.1 0.00 0.00 0.00 50 1012.3
20260503224714 -17 0.0 0.0 0.00 0.00 0.00
20260503224457 21 311 9.7 16.1 0.00 0.00 0.00 49 1012.3
20260503224215 -17 0.0 0.0 0.00 0.00 0.00
20260503223958 21 324 6.4 12.9 0.00 0.00 0.00 49 1012.3
20260503223715 -17 0.0 0.0 0.00 0.00 0.00
20260503223457 22 323 9.7 14.5 0.00 0.00 0.00 47 1012.4
20260503223215 -17 0.0 0.0 0.00 0.00 0.00
20260503222957 21 298 9.7 14.5 0.00 0.00 0.00 47 1012.4
20260503222715 -17 0.0 0.0 0.00 0.00 0.00
20260503222457 21 298 9.7 12.9 0.00 0.00 0.00 48 1012.4
20260503222215 -17 0.0 0.0 0.00 0.00 0.00
20260503221957 21 317 12.9 14.5 0.00 0.00 0.00 50 1012.6
20260503221457 21 303 9.7 14.5 0.00 0.00 0.00 50 1012.5
20260503221220 -17 0.0 0.0 0.00 0.00 0.00
20260503220957 21 312 11.3 17.7 0.00 0.00 0.00 50 1012.7
20260503220715 -17 0.0 0.0 0.00 0.00 0.00
20260503220457 21 293 8.0 14.5 0.00 0.00 0.00 50 1012.8
20260503220215 -17 0.0 0.0 0.00 0.00 0.00
20260503215957 21 309 9.7 14.5 0.00 0.00 0.00 49 1012.8
20260503215457 21 305 11.3 19.3 0.00 0.00 0.00 48 1012.8
20260503215216 -17 0.0 0.0 0.00 0.00 0.00